Regional Weather Roundup
Issued by NWS

Home | Current Version | Previous Version | Text Only | Print | Product List | Glossary On
Versions: 1 2 3 4 5 6 7 8 9 10 11 12 13 14 15 16 17 18 19 20 21 22 23 24 25 26 27 28 29 30 31 32 33 34 35 36 37 38 39 40 41 42 43 44 45 46 47 48 49 50
000
ASUS43 KMKX 310200
RWRWI

WISCONSIN REGIONAL WEATHER ROUNDUP
NATIONAL WEATHER SERVICE MILWAUKEE/SULLIVAN WI
900 PM CDT SAT AUG 30 2014

NOTE: "FAIR" INDICATES FEW OR NO CLOUDS BELOW 12,000 FEET WITH NO
SIGNIFICANT WEATHER AND/OR OBSTRUCTIONS TO VISIBILITY.

WIZ001-002-006>008-014>016-023>028-310300-
NORTHWEST WISCONSIN

CITY           SKY/WX    TMP DP  RH WIND       PRES   REMARKS
SUPERIOR ARPT  CLOUDY    62  61  96 NE5       29.90S
ASHLAND        CLOUDY    61  58  90 NE3       29.94R
HAYWARD        CLOUDY    61  58  90 NE6       29.93R
SIREN          MOCLDY    65  61  87 E3        29.90R
RICE LAKE      CLEAR     61  60  94 CALM      29.91R
LADYSMITH      PTCLDY    62  59  90 N3        29.92R
EAU CLAIRE     PTCLDY    64  62  93 CALM      29.89R
MENOMONIE      PTCLDY    64  60  86 CALM      29.89R
NEW RICHMOND   CLEAR     63  61  94 E5        29.89S
OSCEOLA        CLEAR     64  64  99 CALM      29.91S
$$

WIZ003>005-009-010-017-018-310300-
NORTH CENTRAL WISCONSIN

CITY           SKY/WX    TMP DP  RH WIND       PRES   REMARKS
WOODRUFF       CLOUDY    59  57  91 N6        29.92R
RHINELANDER    CLOUDY    58  56  93 N3        29.93R
EAGLE RIVER    CLOUDY    57  57 100 N6        29.91R
LAND O LAKES   CLOUDY    58  56  93 N5        29.93R
PHILLIPS       CLOUDY    60  57  91 N5        29.91R
TOMAHAWK       CLOUDY    59  56  89 N3        29.92R
MEDFORD        CLOUDY    61  59  91 NE5       29.90S
MERRILL        CLOUDY    62  60  93 N5        29.90R
$$

WIZ029-030-035-036-043>047-310300-
CENTRAL WISCONSIN

CITY           SKY/WX    TMP DP  RH WIND       PRES   REMARKS
WAUSAU         CLOUDY    64  59  83 N7        29.89R
MOSINEE        CLOUDY    64  63  94 N6        29.91R
MARSHFIELD     CLOUDY    65  60  84 N7        29.90R
STEVENS POINT  PTCLDY    64  61  88 N3        29.89R
WAUPACA        MOCLDY    70  66  89 N5        29.88R
WAUTOMA        MOCLDY    72  64  78 N5        29.88R
WISC RAPIDS    PTCLDY    66  62  87 N5        29.90R
CAMP DOUGLAS   CLOUDY    68  68 100 N6        29.89R
$$

WIZ011>013-019>022-031-037>040-048>050-310300-
NORTHEAST WISCONSIN

CITY           SKY/WX    TMP DP  RH WIND       PRES   REMARKS
ANTIGO         CLOUDY    61  58  91 NW7       29.91R
STURGEON BAY   CLOUDY    64  61  88 N12       29.87R
GREEN BAY      CLOUDY    68  66  93 N7        29.87R
MANITOWOC      NOT AVBL
APPLETON       MOCLDY    68  64  88 N12       29.87R
CLINTONVILLE   CLOUDY    68  63  83 NW6       29.88R
OSHKOSH        MOCLDY    69  66  90 NW5       29.87R
$$

WIZ032>034-041-042-053>061-310300-
SOUTHWEST WISCONSIN

CITY           SKY/WX    TMP DP  RH WIND       PRES   REMARKS
LA CROSSE      PTCLDY    70  64  81 CALM      29.87R
SPARTA         CLOUDY    68  63  82 N5        29.89R
VIROQUA        FAIR      67  67 100 NE3       29.89S
BOSCOBEL       CLEAR     70  67  90 CALM      29.87R
PRAIRIE DU CHI LGT RAIN  73  66  78 NW7       29.86R
PLATTEVILLE    FAIR      70  67  90 CALM      29.89S
$$

WIZ056-057-062-063-064-067-068-310300-
SOUTH CENTRAL WISCONSIN

CITY           SKY/WX    TMP DP  RH WIND       PRES   REMARKS
BARABOO/DELLS  PTCLDY    71  65  79 NW5       29.88R
LONE ROCK      NOT AVBL
WATERTOWN      CLEAR     69  68  97 CALM      29.86R
MADISON        PTCLDY    69  65  86 CALM      29.88R
MIDDLETON      FAIR      71  68  90 CALM      29.88R
MONROE         CLEAR     72  66  83 SW9       29.89R
JANESVILLE     PTCLDY    72  66  83 SW7       29.88R
$$

WIZ051-052-058>065-066-070>072-310300-
SOUTHEAST WISCONSIN

CITY           SKY/WX    TMP DP  RH WIND       PRES   REMARKS
MILWAUKEE      PTCLDY    74  68  81 W5        29.87R
WAUKESHA       MOCLDY    68  66  94 CALM      29.89
MILWAUKEE/TIMM CLEAR     72  64  78 CALM      29.87R
RACINE         CLEAR     71  66  84 SW3       29.89R
BURLINGTON     CLEAR     68  65  91 CALM      29.88R
KENOSHA        CLEAR     70  67  90 SW6       29.89R
FOND DU LAC    MOCLDY    70  67  90 CALM      29.87R
SHEBOYGAN      CLEAR     66  64  93 SW6       29.87R
WEST BEND      CLEAR     70  63  78 SW3       29.87R
JUNEAU         CLEAR     67  66  95 CALM      29.89R
$$

LSZ147-162-310300-
LAKE SUPERIOR

STATION/POSITION TIME  TEMP    WIND        PRES    WAVE
                       AIR SEA DIR/SP/G            HT/PER
                 (UTC) (F)     (DEG/KT/KT) (MB)    (FT/S)
W MID LAKE BUOY  0050   59 58  280/  2/  4 1012.2R   1/ 4
DEVILS ISLAND    0100   61     160/  5/  5 1013.1R
PORT WING        0100   63     120/  2/  4 1013.2R
SAXON HARBOR     0100   60        CALM     1012.9R
$$

LMZ867-665-643>646-310300-
LAKE MICHIGAN

STATION/POSITION TIME  TEMP    WIND        PRES    WAVE
                       AIR SEA DIR/SP/G            HT/PER
                 (UTC) (F)     (DEG/KT/KT) (MB)    (FT/S)
N MID LAKE BUOY  0050   63 65  310/ 16/ 19 1008.4R   4/ 6
NORTHPORT PIER   0100   66     310/ 15/ 18 1009.5R
SISTER BAY       0041   65     350/ 17/ 20   N/A
ALGOMA LAKESHORE 0038          340/ 10/ 14   N/A
KEWAUNEE LAKESHO 0100   69     330/  4/ 10 1009.2R
SHEBOYGAN LAKESH 0100   72 50  270/  6/  7 1010.3R
ATWATER BUOY     0100   69     280/  2/  4 1011.9R
MILWAUKEE LAKESH 0100   76     280/  4/  5   N/A
S MID LAKE BUOY  0050   72 69  240/ 10/ 10 1010.7R   2/ 4
KENOSHA   LAKESH 0100   78     240/  7/ 11 1010.8R
$$

TC  - TEMPERATURE IN CELSIUS
VSB - VISIBILITY IN STATUTE MILES
WCI - WIND CHILL INDEX
HX  - HEAT INDEX



USA.gov is the U.S. government's official web portal to all federal, state and local government web resources and services.